SCP
-0 0 0 -0 -0 0 0 0 0 0 0 0 0 0 0 -0 -0 0 0 -0 0 0 0 0 0 0 0 0 0 0 0 0 0 0 0 0 0 0 0 0 0 0 0 0
0 0 -0 -0 0 0 0 0 0 0 0 0 0 0 0 -0 -0 -0 0 0 0 0 0 0 0 0 0 0 0 0 0 0 0 0 0 0 0 0 0 0 0 0 0 0
-0 -0 -0 -0 0 0 0 0 0 0 0 0 0 0 0 0 0 0 0 0 0 0 0 0 0 0 0 0 0 0 0 0 0 0 0 0 0 0 0 0 0 0 0 0
-0 0 -0 -0 0 0 0 0 0 0 0 0 0 0 0 0 0 0 0 0 0 0 0 0 0 0 0 0 0 0 0 0 0 0 0 0 0 0 0 0 0 0 0 0
0 -0 0 0 0 0 0 0 0 0 0 0 0 0 0 0 0 0 0 0 0 0 0 0 0 0 0 0 0 0 0 0 0 0 0 0 0 0 0 0 0 0 0 0
0 0 0 0 0 0 0 0 0 0 0 0 0 0 0 0 0 0 0 0 0 0 0 0 0 0 0 0 0 0 0 0 0 0 0 0 0 0 0 0 0 0 0 0
0 0 -0 0 0 0 0 0 0 0 0 0 0 0 0 0 0 0 0 0 0 0 0 0 0 0 0 0 0 0 0 0 0 0 0 0 0 0 0 0 0 0 0 0
0 0 0 -0 0 -0 0 0 0 0 0 0 0 0 0 0 0 0 0 0 0 0 0 0 0 0 0 0 0 -0 0 0 0 0 0 0 0 0 0 0 0 0 0 0
0 0 0 -0 0 0 0 0 0 0 0 0 0 0 0 0 0 0 0 0 0 0 0 0 0 0 0 -0 -0 0 0 0 0 0 0 0 0 0 0 0 0 0 0 0
0 0 -0 0 0 0 0 0 0 0 0 0 0 0 0 0 0 0 0 0 0 0 0 0 0 0 0 0 0 0 0 0 0 0 0 0 0 0 0 0 0 0 0 0
0 0 0 0 0 0 0 0 0 0 0 0 0 0 0 0 0 0 0 0 0 0 0 0 0 0 0 0 0 0 0 0 0 0 0 0 0 0 0 0 0 0 0 0
0 0 0 0 0 0 0 0 0 0 0 0 0 0 0 0 0 0 0 0 0 0 0 0 0 0 0 0 0 0 0 0 0 0 0 0 0 0 0 0 0 0 0 0
0 0 0 0 0 0 0 0 0 0 0 0 0 0 0 0 0 0 0 0 0 0 0 0 0 0 0 0 0 0 0 0 0 0 0 0 0 0 0 0 0 0 0 0
0 0 0 0 0 0 0 0 0 0 0 0 0 0 0 0 0 0 0 0 0 0 0 0 0 0 0 0 0 0 0 0 0 0 0 0 0 0 0 0 0 0 0 0
0 0 0 0 0 0 0 0 0 0 0 0 0 0 0 0 0 0 0 0 0 0 0 0 0 0 0 0 0 0 0 0 0 0 0 0 0 0 0 0 0 0 0 0
0 0 0 0 0 0 0 0 0 0 0 0 0 0 0 0 0 -0 -0 -0 -0 0 0 0 0 0 0 0 0 0 0 0 0 0 0 0 0 0 0 0 0 0 0 0
0 0 0 0 0 0 0 0 0 0 0 0 0 0 0 0 0 0 -0 -0 0 -0 0 0 0 0 0 0 0 0 0 0 0 0 0 0 0 0 0 0 0 0 0 0
0 0 0 0 0 0 0 0 0 0 0 0 0 0 0 0 0 -0 -0 0 0 0 -0 -0 0 0 0 0 0 0 0 0 0 0 0 0 0 0 0 0 0 0 0 0
0 0 0 0 0 0 0 0 0 0 0 0 0 0 0 0 0 0 0 0 0 0 0 0 0 0 0 0 0 0 0 0 0 0 0 0 0 0 0 0 0 0 0 0
0 0 0 0 0 0 0 0 0 0 0 0 0 0 0 0 0 0 -0 -0 0 0 0 0 0 0 0 0 0 0 0 0 0 0 0 0 0 0 0 0 0 0 0 0
0 0 0 0 0 0 0 0 0 0 0 0 0 0 0 0 0 0 -0 -0 0 0 0 0 0 0 0 0 0 0 0 0 0 0 0 0 0 0 0 0 0 0 0 0
0 0 0 0 0 0 0 0 0 0 0 0 0 0 0 0 0 0 -0 0 0 0 0 0 0 0 0 0 0 0 0 0 0 0 0 0 0 0 0 0 0 0 0 0
0 0 0 0 0 0 0 0 0 0 0 0 0 0 0 0 0 0 0 0 0 0 0 0 0 0 0 0 0 0 0 0 0 0 0 0 0 0 0 0 0 0 0 0
0 0 0 0 0 0 0 0 0 0 0 0 0 0 0 -0 -0 -0 0 0 0 0 0 0 0 0 0 0 0 0 0 0 0 0 0 0 0 0 0 0 0 0 0 0
0 0 0 0 0 0 0 0 0 0 0 0 0 0 -0 0 0 0 0 0 0 0 0 0 0 0 0 0 0 0 0 0 0 0 0 0 0 0 0 0 0 0 0 0
0 0 0 0 0 0 0 0 0 0 0 0 0 -0 0 0 0 0 0 0 0 0 0 0 0 0 0 0 0 0 0 0 0 0 0 0 0 0 0 0 0 0 0 0
Wind_Speed_500mb
7 6 9 18 20 14 8 4 10 5 13 14 21 21 14 54 54 45 50 63 71 74 65 58 50 42 34 26 21 15 11 13 17 17 18 21 21 16 14 15 16 19 20 25
14 8 14 26 12 10 8 5 10 9 7 5 3 6 14 43 63 49 42 48 68 72 70 66 60 55 46 32 23 20 13 12 16 20 23 21 26 23 19 16 14 15 19 22
7 18 23 15 9 7 7 11 11 9 4 5 2 9 12 3 18 37 39 40 62 77 80 75 75 70 56 41 25 21 17 16 16 17 22 27 25 30 23 18 16 17 21 19
9 4 9 22 14 11 8 16 8 7 6 2 7 7 11 6 12 23 40 60 59 74 82 87 85 80 65 47 25 27 22 17 15 18 20 26 25 25 25 19 23 22 21 18
15 8 9 12 11 7 4 16 7 5 6 5 7 7 14 3 9 15 42 63 61 66 72 93 94 89 68 50 32 29 27 22 16 16 19 20 24 25 24 26 25 21 20 18
6 13 5 9 8 0 15 11 12 7 7 8 7 6 10 7 9 11 13 26 46 66 76 80 84 86 76 54 43 36 35 27 17 13 13 19 22 23 24 27 25 22 19 20
12 11 13 4 8 13 14 10 7 10 9 9 3 1 17 11 16 22 20 44 47 30 51 78 79 74 74 60 42 45 42 34 21 11 6 12 14 16 16 19 25 28 28 28
4 17 4 4 5 9 4 9 10 8 4 9 7 7 11 7 19 13 15 20 31 35 36 54 70 67 54 51 5 66 52 38 27 14 7 7 11 11 14 17 18 20 20 22
9 12 8 5 7 5 6 3 10 10 4 5 5 13 17 3 10 23 14 27 28 33 34 47 61 60 69 59 19 26 57 41 28 21 19 12 12 14 16 16 17 18 19 22
13 8 7 8 5 17 5 7 7 6 1 6 9 9 10 9 5 2 10 13 24 27 32 40 47 47 53 55 42 8 35 40 29 26 25 18 15 15 17 19 18 20 20 23
9 8 15 1 8 13 4 3 12 9 8 9 4 13 11 10 3 13 8 17 27 24 26 31 35 34 25 46 55 39 39 33 33 31 30 27 21 17 20 25 26 26 26 25
6 10 5 13 13 8 4 7 10 9 8 1 6 13 5 8 11 14 2 12 20 20 28 20 24 29 20 22 39 55 44 30 31 29 32 34 29 24 24 27 28 30 32 30
11 4 6 16 15 10 3 6 8 9 6 10 9 11 5 8 11 2 6 14 15 17 20 13 17 30 34 39 42 37 37 36 30 31 33 38 32 28 26 29 28 30 34 34
11 6 10 12 11 5 8 7 9 11 7 7 10 14 9 4 8 7 4 10 18 16 19 22 28 22 17 26 28 34 36 31 28 30 36 33 31 30 27 29 30 33 35 38
9 5 7 10 8 5 8 8 6 13 7 8 10 7 10 8 8 14 10 14 19 23 25 24 27 23 14 22 19 27 29 25 26 28 24 26 26 28 30 30 34 36 39 42
7 3 0 6 6 10 5 13 11 6 2 5 5 4 16 7 10 19 13 17 21 24 25 29 28 13 17 22 24 17 20 23 24 21 20 24 26 25 28 31 32 38 42 45
4 9 6 8 8 9 10 5 4 5 5 4 4 7 9 2 5 8 9 10 12 15 16 15 17 15 3 6 7 9 16 15 14 12 18 23 25 27 30 36 41 44 44 45
9 7 4 5 7 4 9 2 1 12 9 19 7 9 6 4 1 11 27 15 15 12 6 5 10 9 11 9 2 7 5 3 6 14 21 26 30 31 35 39 40 42 44 42
8 9 5 6 6 9 2 6 1 5 2 12 11 7 13 9 5 8 22 22 15 15 7 1 10 15 16 10 8 8 3 5 12 17 17 19 22 29 38 41 38 34 33 29
11 11 9 4 4 7 10 4 6 3 4 11 6 20 13 7 3 12 26 18 19 16 6 4 12 15 15 13 11 8 4 4 9 16 20 23 28 33 32 32 29 25 25 23
7 7 7 2 4 11 6 6 3 3 12 6 26 33 28 14 35 31 39 27 28 20 10 12 15 17 13 11 7 8 5 8 11 14 20 26 27 25 25 22 17 14 20 26
3 5 2 4 3 11 3 8 7 11 17 30 35 32 30 49 44 34 44 44 45 32 21 14 18 17 16 11 9 2 8 12 15 17 22 24 25 24 15 12 13 22 29 26
4 6 6 12 10 9 13 20 16 24 29 42 44 35 36 50 35 17 29 51 46 36 27 18 20 17 14 12 13 16 19 18 19 20 19 19 12 14 15 16 23 25 20 21
5 4 3 5 8 20 23 28 32 40 43 32 27 42 24 24 24 22 34 51 49 41 26 29 28 22 16 12 10 15 16 15 16 16 14 16 15 15 13 15 20 21 21 23
7 8 9 9 18 22 38 45 47 47 41 39 38 26 34 22 23 17 41 49 42 37 33 34 28 20 13 9 11 13 16 13 13 11 13 15 19 16 10 15 19 20 23 28
17 12 9 11 14 19 24 20 33 46 35 28 18 23 22 9 5 21 44 39 33 35 40 34 24 16 12 7 11 12 11 5 5 9 11 17 20 11 12 16 14 15 22 29
Wind_Direction_500mb
82 88 281 236 200 221 169 160 263 236 214 161 220 242 220 200 211 209 208 217 220 228 235 231 231 237 242 257 260 275 268 244 238 234 222 228 230 249 270 277 315 343 351 358
15 299 272 293 171 158 161 198 254 310 40 112 250 311 311 198 212 209 217 224 227 231 232 232 230 236 239 249 255 264 287 270 252 242 235 234 234 249 267 267 292 319 328 336
156 258 330 26 25 126 210 185 228 179 87 56 341 312 330 315 222 221 227 244 237 238 237 232 232 235 236 235 246 267 288 293 261 240 238 226 235 241 259 260 284 298 311 316
224 13 354 310 304 141 240 198 161 148 108 248 32 287 289 321 299 250 240 235 238 242 237 239 234 233 232 233 229 253 259 281 276 247 240 237 246 251 264 260 282 289 303 299
255 350 311 316 266 159 272 69 56 91 121 79 357 55 274 54 274 246 252 255 253 250 253 242 239 237 231 226 226 244 243 253 274 256 248 247 247 247 253 261 276 278 288 283
265 274 237 218 338 271 153 76 54 47 59 26 282 106 286 265 238 301 286 306 308 267 251 248 245 239 228 218 226 232 235 240 259 256 247 254 256 264 259 256 275 279 295 287
349 294 285 222 10 19 51 66 5 7 1 226 28 45 242 259 242 236 319 318 323 333 263 244 239 234 227 218 230 234 237 238 246 260 268 262 267 270 272 254 277 281 293 300
103 330 341 357 178 156 70 128 138 248 252 272 6 248 269 240 329 42 29 340 337 333 299 255 244 227 224 212 224 259 250 245 245 275 296 279 293 307 303 290 286 296 293 305
167 260 309 20 58 25 170 73 164 108 16 38 261 289 314 8 28 44 14 20 347 339 308 267 245 227 226 203 230 295 252 253 260 294 303 315 322 330 337 326 313 317 308 309
210 298 233 202 34 50 129 123 41 21 351 305 294 288 241 303 189 15 22 350 329 314 297 266 241 235 232 216 223 288 283 256 260 279 292 299 313 330 339 343 336 323 322 313
133 122 282 132 182 205 344 36 56 108 126 171 275 277 212 272 220 199 265 319 324 321 319 278 253 230 238 215 220 228 262 280 256 268 294 284 287 312 323 335 335 331 324 321
169 142 223 236 301 222 160 157 135 123 240 222 153 276 18 99 118 169 268 320 340 345 353 299 231 220 266 256 232 235 251 280 263 267 289 279 279 293 311 326 331 331 326 321
180 37 39 350 351 356 355 207 129 104 88 194 149 263 134 106 120 268 305 308 332 323 337 282 247 291 280 261 257 260 263 274 265 276 290 277 280 296 310 324 326 326 325 324
114 99 148 192 212 214 304 283 140 132 123 187 229 289 306 174 246 206 308 318 311 311 302 305 299 309 305 259 262 264 253 269 257 281 286 286 286 293 301 316 318 321 325 323
96 117 195 227 251 239 245 10 171 191 168 188 257 229 283 184 255 300 309 308 320 327 308 299 293 281 294 243 246 255 255 258 249 294 293 314 301 290 301 306 314 318 319 324
6 193 96 317 305 317 317 30 333 40 147 273 188 213 224 143 157 274 299 301 332 349 358 353 351 262 253 241 243 266 262 255 249 297 304 339 349 314 306 316 319 318 321 323
101 138 104 265 345 342 10 323 28 350 6 282 192 256 118 223 232 273 297 297 314 326 9 20 17 32 138 210 256 275 271 249 286 306 336 344 333 329 327 317 314 316 315 312
133 100 108 226 18 25 246 15 190 125 32 1 357 39 94 208 252 333 320 282 270 289 316 5 63 77 98 110 239 254 273 313 326 327 327 329 319 319 316 312 310 311 313 316
149 128 118 142 185 275 20 306 31 190 302 339 342 260 229 169 148 269 221 255 248 242 234 150 100 109 126 152 181 180 186 280 288 298 312 317 319 320 317 314 320 327 329 334
73 68 112 117 152 204 238 317 303 99 282 348 353 65 27 336 2 269 274 267 227 202 177 127 124 131 142 141 151 180 216 284 298 301 306 311 315 319 322 322 330 338 339 354
3 12 112 116 201 285 269 329 217 91 242 143 133 118 117 229 217 246 268 286 224 210 175 142 131 130 131 149 171 206 238 276 307 309 310 313 324 330 330 329 336 5 12 6
132 112 131 113 84 283 7 295 193 199 187 170 165 185 226 214 239 270 275 244 208 191 166 149 148 145 153 163 217 283 339 338 331 321 318 325 329 337 357 9 20 1 356 2
357 171 197 176 224 284 291 255 233 208 211 220 231 259 274 258 237 295 209 196 197 188 182 176 181 170 175 212 247 288 330 343 334 327 336 346 19 20 21 360 353 4 27 27
319 178 164 31 244 253 263 247 244 234 241 238 275 302 308 277 293 289 201 195 191 193 195 188 187 187 194 226 276 311 327 344 339 348 8 35 40 29 5 22 33 32 35 30
206 148 170 259 274 276 264 250 255 249 252 262 292 276 307 287 263 256 196 188 188 195 192 188 187 188 210 265 307 322 328 338 334 6 31 41 21 27 33 39 47 39 40 26
197 191 166 233 263 219 269 294 280 267 269 285 295 286 281 264 252 195 181 180 180 190 189 182 184 203 239 245 291 311 318 359 19 10 44 34 22 56 47 34 40 46 25 15
Wind_Speed_850mb
7 6 9 18 20 14 8 4 10 5 13 14 21 21 14 54 54 45 50 63 71 74 65 58 50 42 34 26 21 15 11 13 17 17 18 21 21 16 14 15 16 19 20 25
14 8 14 26 12 10 8 5 10 9 7 5 3 6 14 43 63 49 42 48 68 72 70 66 60 55 46 32 23 20 13 12 16 20 23 21 26 23 19 16 14 15 19 22
7 18 23 15 9 7 7 11 11 9 4 5 2 9 12 3 18 37 39 40 62 77 80 75 75 70 56 41 25 21 17 16 16 17 22 27 25 30 23 18 16 17 21 19
9 4 9 22 14 11 8 16 8 7 6 2 7 7 11 6 12 23 40 60 59 74 82 87 85 80 65 47 25 27 22 17 15 18 20 26 25 25 25 19 23 22 21 18
15 8 9 12 11 7 4 16 7 5 6 5 7 7 14 3 9 15 42 63 61 66 72 93 94 89 68 50 32 29 27 22 16 16 19 20 24 25 24 26 25 21 20 18
6 13 5 9 8 0 15 11 12 7 7 8 7 6 10 7 9 11 13 26 46 66 76 80 84 86 76 54 43 36 35 27 17 13 13 19 22 23 24 27 25 22 19 20
12 11 13 4 8 13 14 10 7 10 9 9 3 1 17 11 16 22 20 44 47 30 51 78 79 74 74 60 42 45 42 34 21 11 6 12 14 16 16 19 25 28 28 28
4 17 4 4 5 9 4 9 10 8 4 9 7 7 11 7 19 13 15 20 31 35 36 54 70 67 54 51 5 66 52 38 27 14 7 7 11 11 14 17 18 20 20 22
9 12 8 5 7 5 6 3 10 10 4 5 5 13 17 3 10 23 14 27 28 33 34 47 61 60 69 59 19 26 57 41 28 21 19 12 12 14 16 16 17 18 19 22
13 8 7 8 5 17 5 7 7 6 1 6 9 9 10 9 5 2 10 13 24 27 32 40 47 47 53 55 42 8 35 40 29 26 25 18 15 15 17 19 18 20 20 23
9 8 15 1 8 13 4 3 12 9 8 9 4 13 11 10 3 13 8 17 27 24 26 31 35 34 25 46 55 39 39 33 33 31 30 27 21 17 20 25 26 26 26 25
6 10 5 13 13 8 4 7 10 9 8 1 6 13 5 8 11 14 2 12 20 20 28 20 24 29 20 22 39 55 44 30 31 29 32 34 29 24 24 27 28 30 32 30
11 4 6 16 15 10 3 6 8 9 6 10 9 11 5 8 11 2 6 14 15 17 20 13 17 30 34 39 42 37 37 36 30 31 33 38 32 28 26 29 28 30 34 34
11 6 10 12 11 5 8 7 9 11 7 7 10 14 9 4 8 7 4 10 18 16 19 22 28 22 17 26 28 34 36 31 28 30 36 33 31 30 27 29 30 33 35 38
9 5 7 10 8 5 8 8 6 13 7 8 10 7 10 8 8 14 10 14 19 23 25 24 27 23 14 22 19 27 29 25 26 28 24 26 26 28 30 30 34 36 39 42
7 3 0 6 6 10 5 13 11 6 2 5 5 4 16 7 10 19 13 17 21 24 25 29 28 13 17 22 24 17 20 23 24 21 20 24 26 25 28 31 32 38 42 45
4 9 6 8 8 9 10 5 4 5 5 4 4 7 9 2 5 8 9 10 12 15 16 15 17 15 3 6 7 9 16 15 14 12 18 23 25 27 30 36 41 44 44 45
9 7 4 5 7 4 9 2 1 12 9 19 7 9 6 4 1 11 27 15 15 12 6 5 10 9 11 9 2 7 5 3 6 14 21 26 30 31 35 39 40 42 44 42
8 9 5 6 6 9 2 6 1 5 2 12 11 7 13 9 5 8 22 22 15 15 7 1 10 15 16 10 8 8 3 5 12 17 17 19 22 29 38 41 38 34 33 29
11 11 9 4 4 7 10 4 6 3 4 11 6 20 13 7 3 12 26 18 19 16 6 4 12 15 15 13 11 8 4 4 9 16 20 23 28 33 32 32 29 25 25 23
7 7 7 2 4 11 6 6 3 3 12 6 26 33 28 14 35 31 39 27 28 20 10 12 15 17 13 11 7 8 5 8 11 14 20 26 27 25 25 22 17 14 20 26
3 5 2 4 3 11 3 8 7 11 17 30 35 32 30 49 44 34 44 44 45 32 21 14 18 17 16 11 9 2 8 12 15 17 22 24 25 24 15 12 13 22 29 26
4 6 6 12 10 9 13 20 16 24 29 42 44 35 36 50 35 17 29 51 46 36 27 18 20 17 14 12 13 16 19 18 19 20 19 19 12 14 15 16 23 25 20 21
5 4 3 5 8 20 23 28 32 40 43 32 27 42 24 24 24 22 34 51 49 41 26 29 28 22 16 12 10 15 16 15 16 16 14 16 15 15 13 15 20 21 21 23
7 8 9 9 18 22 38 45 47 47 41 39 38 26 34 22 23 17 41 49 42 37 33 34 28 20 13 9 11 13 16 13 13 11 13 15 19 16 10 15 19 20 23 28
17 12 9 11 14 19 24 20 33 46 35 28 18 23 22 9 5 21 44 39 33 35 40 34 24 16 12 7 11 12 11 5 5 9 11 17 20 11 12 16 14 15 22 29
Wind_Direction_850mb
82 88 281 236 200 221 169 160 263 236 214 161 220 242 220 200 211 209 208 217 220 228 235 231 231 237 242 257 260 275 268 244 238 234 222 228 230 249 270 277 315 343 351 358
15 299 272 293 171 158 161 198 254 310 40 112 250 311 311 198 212 209 217 224 227 231 232 232 230 236 239 249 255 264 287 270 252 242 235 234 234 249 267 267 292 319 328 336
156 258 330 26 25 126 210 185 228 179 87 56 341 312 330 315 222 221 227 244 237 238 237 232 232 235 236 235 246 267 288 293 261 240 238 226 235 241 259 260 284 298 311 316
224 13 354 310 304 141 240 198 161 148 108 248 32 287 289 321 299 250 240 235 238 242 237 239 234 233 232 233 229 253 259 281 276 247 240 237 246 251 264 260 282 289 303 299
255 350 311 316 266 159 272 69 56 91 121 79 357 55 274 54 274 246 252 255 253 250 253 242 239 237 231 226 226 244 243 253 274 256 248 247 247 247 253 261 276 278 288 283
265 274 237 218 338 271 153 76 54 47 59 26 282 106 286 265 238 301 286 306 308 267 251 248 245 239 228 218 226 232 235 240 259 256 247 254 256 264 259 256 275 279 295 287
349 294 285 222 10 19 51 66 5 7 1 226 28 45 242 259 242 236 319 318 323 333 263 244 239 234 227 218 230 234 237 238 246 260 268 262 267 270 272 254 277 281 293 300
103 330 341 357 178 156 70 128 138 248 252 272 6 248 269 240 329 42 29 340 337 333 299 255 244 227 224 212 224 259 250 245 245 275 296 279 293 307 303 290 286 296 293 305
167 260 309 20 58 25 170 73 164 108 16 38 261 289 314 8 28 44 14 20 347 339 308 267 245 227 226 203 230 295 252 253 260 294 303 315 322 330 337 326 313 317 308 309
210 298 233 202 34 50 129 123 41 21 351 305 294 288 241 303 189 15 22 350 329 314 297 266 241 235 232 216 223 288 283 256 260 279 292 299 313 330 339 343 336 323 322 313
133 122 282 132 182 205 344 36 56 108 126 171 275 277 212 272 220 199 265 319 324 321 319 278 253 230 238 215 220 228 262 280 256 268 294 284 287 312 323 335 335 331 324 321
169 142 223 236 301 222 160 157 135 123 240 222 153 276 18 99 118 169 268 320 340 345 353 299 231 220 266 256 232 235 251 280 263 267 289 279 279 293 311 326 331 331 326 321
180 37 39 350 351 356 355 207 129 104 88 194 149 263 134 106 120 268 305 308 332 323 337 282 247 291 280 261 257 260 263 274 265 276 290 277 280 296 310 324 326 326 325 324
114 99 148 192 212 214 304 283 140 132 123 187 229 289 306 174 246 206 308 318 311 311 302 305 299 309 305 259 262 264 253 269 257 281 286 286 286 293 301 316 318 321 325 323
96 117 195 227 251 239 245 10 171 191 168 188 257 229 283 184 255 300 309 308 320 327 308 299 293 281 294 243 246 255 255 258 249 294 293 314 301 290 301 306 314 318 319 324
6 193 96 317 305 317 317 30 333 40 147 273 188 213 224 143 157 274 299 301 332 349 358 353 351 262 253 241 243 266 262 255 249 297 304 339 349 314 306 316 319 318 321 323
101 138 104 265 345 342 10 323 28 350 6 282 192 256 118 223 232 273 297 297 314 326 9 20 17 32 138 210 256 275 271 249 286 306 336 344 333 329 327 317 314 316 315 312
133 100 108 226 18 25 246 15 190 125 32 1 357 39 94 208 252 333 320 282 270 289 316 5 63 77 98 110 239 254 273 313 326 327 327 329 319 319 316 312 310 311 313 316
149 128 118 142 185 275 20 306 31 190 302 339 342 260 229 169 148 269 221 255 248 242 234 150 100 109 126 152 181 180 186 280 288 298 312 317 319 320 317 314 320 327 329 334
73 68 112 117 152 204 238 317 303 99 282 348 353 65 27 336 2 269 274 267 227 202 177 127 124 131 142 141 151 180 216 284 298 301 306 311 315 319 322 322 330 338 339 354
3 12 112 116 201 285 269 329 217 91 242 143 133 118 117 229 217 246 268 286 224 210 175 142 131 130 131 149 171 206 238 276 307 309 310 313 324 330 330 329 336 5 12 6
132 112 131 113 84 283 7 295 193 199 187 170 165 185 226 214 239 270 275 244 208 191 166 149 148 145 153 163 217 283 339 338 331 321 318 325 329 337 357 9 20 1 356 2
357 171 197 176 224 284 291 255 233 208 211 220 231 259 274 258 237 295 209 196 197 188 182 176 181 170 175 212 247 288 330 343 334 327 336 346 19 20 21 360 353 4 27 27
319 178 164 31 244 253 263 247 244 234 241 238 275 302 308 277 293 289 201 195 191 193 195 188 187 187 194 226 276 311 327 344 339 348 8 35 40 29 5 22 33 32 35 30
206 148 170 259 274 276 264 250 255 249 252 262 292 276 307 287 263 256 196 188 188 195 192 188 187 188 210 265 307 322 328 338 334 6 31 41 21 27 33 39 47 39 40 26
197 191 166 233 263 219 269 294 280 267 269 285 295 286 281 264 252 195 181 180 180 190 189 182 184 203 239 245 291 311 318 359 19 10 44 34 22 56 47 34 40 46 25 15